Starlink 11714

operational
NORAD ID: 64134 Int'l Des: 2025-111 Owner: SPXS Country: US Constellation: starlink
LEOCIRCULAR

About Starlink 11714

Description loading...

Live Position

Loading 3D Globe...

Upcoming Passes

Altitude History

Altitude vs Time

uPlot chart will show altitude changes over time

Two-Line Element Set

1 64134U 25111M 25353.76420324 .00198877 00000-0 15106-2 0 9999
2 64134 43.0007 95.1900 0004685 280.1392 79.8947 15.70925761 34077
Epoch: Dec 19, 2025 • Age: 13 hours

Current Status

Altitude 364.9 km
Velocity 7.69 km/s
Sub-Earth Point -40.93°S, 178.61°E
Launch Date May 24, 2025
Age 0.5 years
Type internet

Technical Details

Classification Payload
Mass 960.00 kg
Dry Mass 910.00 kg
Total Mass 960.00 kg
Length 0.30 m
Diameter 4.10 m
Span 29.00 m
Shape Box + pan
Manufacturer SPXS
Bus Type Starlink V2MD
Phase Status In Orbit
Owner/State SPXS/US

Large Constellations

Loading constellations...